This demonstration page uses our WeatherBlox Daily Observations layout. Learn more.

Left ArrowRight Arrow

39.08367, -84.50855

Hourly Observations for October 12, 2018

Temp ( °F °C ) Dew Point ( °F °C ) Humidity (%) Winds ( mph kmh ) Pressure ( in mb ) Visibility ( mi km ) Precip ( " mm )
12:53 am 00:53 Clear 49 9.4 38 3.3 66 66 VRB 6 9 30.02 1017 10 16 N/A
1:53 am 01:53 Clear 47 8.3 39 3.9 74 74 NNW 5 7 30.02 1017 10 16 N/A
2:53 am 02:53 Clear 46 7.8 38 3.3 73 73 NW 5 7 30.03 1017 10 16 N/A
3:53 am 03:53 Clear 45 7.2 38 3.3 77 77 WNW 5 7 30.04 1017 10 16 N/A
4:53 am 04:53 Clear 45 7.2 37 2.8 74 74 WNW 6 9 30.06 1018 10 16 N/A
5:53 am 05:53 Clear 43 6.1 37 2.8 80 80 NW 5 7 30.05 1018 10 16 N/A
6:53 am 06:53 Clear 42 5.6 37 2.8 82 82 NW 5 7 30.06 1018 10 16 N/A
7:53 am 07:53 Sunny 42 5.6 37 2.8 82 82 N N/A 30.05 1018 10 16 N/A
8:53 am 08:53 Sunny 45 7.2 37 2.8 74 74 N N/A 30.06 1018 10 16 N/A
9:53 am 09:53 Sunny 47 8.3 39 3.9 74 74 W 5 7 30.05 1018 10 16 N/A
10:53 am 10:53 Sunny 49 9.4 39 3.9 69 69 W 5 7 30.05 1018 10 16 N/A
11:53 am 11:53 Sunny 51 10.6 38 3.3 61 61 E 3 6 30.03 1017 10 16 N/A
12:53 pm 12:53 Sunny 52 11.1 38 3.3 59 59 WSW 7 11 30.00 1016 10 16 N/A
1:53 pm 13:53 Sunny 54 12.2 38 3.3 55 55 WSW 8 13 29.98 1015 10 16 N/A
2:53 pm 14:53 Sunny 55 12.8 39 3.9 55 55 SW 9 15 29.96 1015 10 16 N/A
3:53 pm 15:53 Sunny 55 12.8 36 2.2 49 49 W 9 15 29.94 1014 10 16 N/A
4:53 pm 16:53 Cloudy 54 12.2 35 1.7 49 49 W 6 9 29.93 1014 10 16 N/A
5:53 pm 17:53 Cloudy 53 11.7 35 1.7 51 51 W 7 11 29.93 1014 10 16 N/A
6:53 pm 18:53 Cloudy with Light Rain 52 11.1 37 2.8 57 57 NW 7 11 29.92 1013 10 16 N/A
7:53 pm 19:53 Cloudy 49 9.4 38 3.3 66 66 NW 6 9 29.92 1013 10 16 N/A
8:53 pm 20:53 Cloudy with Light Rain 46 7.8 42 5.6 86 86 NW 8 13 29.94 1014 7 11 0.11 2.79
9:53 pm 21:53 Cloudy 44 6.7 40 4.4 85 85 N 6 9 29.93 1014 7 11 0.05 1.27
10:53 pm 22:53 Cloudy with Rain 44 6.7 40 4.4 85 85 NW 6 9 29.94 1014 7 11 0.05 1.27
11:22 pm 23:22 Cloudy with Rain 43 6.1 41 5 93 93 NW 8 13 29.94 1014 8 13 0.03 0.76
11:53 pm 23:53 Cloudy with Light Rain 43 6.1 41 5 93 93 NW 6 9 29.95 1014 10 16 0.05 1.27

Powered by AerisWeather